Weather History for Ludington, MI

Change the Weather History Date:

Sunday, February 2, 2014

  Actual Average Record
Temperature  
Mean Temperature 10 °F -  
Max Temperature 20 °F 31 °F 45 °F (1968)
Min Temperature 0 °F 16 °F -10 °F (1961)
Degree Days  
Heating Degree Days 54    
Moisture  
Dew Point 10 °F    
Average Humidity 77    
Maximum Humidity 89    
Minimum Humidity 69    
Precipitation  
Precipitation 0.00 in - - ()
Sea Level Pressure  
Sea Level Pressure 30.16 in    
Wind  
Wind Speed 5 mph (NW)    
Max Wind Speed 10 mph    
Max Gust Speed 17 mph    
Visibility 9 miles    
Events Snow    
Averages and records for this station are not official NWS values.
T = Trace of Precipitation, MM = Missing Value Source: NWS Daily Summary

Daily Weather History Graph

Daily Weather History Graph

Search for Another Location

Airport:

Trip Planner

Search our weather history database for the weather conditions in past years. The results will help you decide how hot, cold, wet, or windy it might be!

Date:

Astronomy

Feb. 02, 2014 Rise Set
Actual Time 8:01 AM EST 5:57 PM EST
Civil Twilight 7:31 AM EST 6:28 PM EST
Nautical Twilight 6:56 AM EST 7:02 PM EST
Astronomical Twilight 6:22 AM EST 7:36 PM EST
Moon 9:19 AM EST (2/2) 9:50 PM EST (2/2)
Length of Visible Light 10h 56m
Length of Day
9h 55m
Waxing Crescent, 11% of the Moon is Illuminated
Feb 2
Waxing Crescent
Feb 6
First Quarter
Feb 14
Full
Feb 22
Last Quarter
Mar 1
New

Hourly Weather History & Observations

Time (EST) Temp. Windchill Dew Point Humidity Pressure Visibility Wind Dir Wind Speed Gust Speed Precip Events Conditions
12:15 AM 21.7 °F 13.2 °F 16.9 °F 82% 30.02 in 10.0 mi NW 6.9 mph - N/A   Overcast
12:35 AM 20.8 °F 12.1 °F 14.9 °F 78% 30.02 in 10.0 mi NW 6.9 mph - N/A   Overcast
12:54 AM 20.8 °F 12.1 °F 14.2 °F 75% 30.03 in 10.0 mi NW 6.9 mph - N/A   Overcast
1:15 AM 20.8 °F 16.0 °F 13.5 °F 73% 30.04 in 10.0 mi WNW 3.5 mph - N/A   Overcast
1:34 AM 20.7 °F 15.8 °F 13.3 °F 73% 30.04 in 10.0 mi WNW 3.5 mph - N/A   Overcast
1:54 AM 20.7 °F 11.9 °F 14.0 °F 75% 30.04 in 10.0 mi NW 6.9 mph - N/A   Overcast
2:15 AM 20.7 °F 14.2 °F 14.0 °F 75% 30.04 in 10.0 mi WNW 4.6 mph - N/A   Overcast
2:34 AM 20.7 °F 13.0 °F 14.4 °F 77% 30.04 in 10.0 mi NNW 5.8 mph - N/A   Overcast
2:54 AM 20.7 °F 14.2 °F 14.2 °F 76% 30.04 in 10.0 mi NW 4.6 mph - N/A   Overcast
3:15 AM 19.8 °F 14.7 °F 13.3 °F 76% 30.05 in 10.0 mi NW 3.5 mph - N/A   Scattered Clouds
3:34 AM 19.4 °F - 13.6 °F 78% 30.06 in 10.0 mi Calm Calm - N/A   Scattered Clouds
3:55 AM 19.4 °F 14.3 °F 13.6 °F 78% 30.06 in 10.0 mi NW 3.5 mph - N/A   Mostly Cloudy
4:15 AM 19.9 °F - 14.2 °F 78% 30.07 in 10.0 mi Calm Calm - N/A   Overcast
4:34 AM 19.4 °F - 14.0 °F 80% 30.06 in 10.0 mi Calm Calm - N/A   Overcast
4:55 AM 19.6 °F 14.5 °F 14.0 °F 79% 30.07 in 10.0 mi NNW 3.5 mph - N/A   Overcast
5:15 AM 19.8 °F - 14.0 °F 78% 30.06 in 10.0 mi Calm Calm - N/A   Overcast
5:34 AM 19.9 °F 14.9 °F 14.0 °F 78% 30.07 in 10.0 mi NW 3.5 mph - N/A   Overcast
5:55 AM 20.5 °F 15.6 °F 14.5 °F 78% 30.08 in 10.0 mi WNW 3.5 mph - N/A   Overcast
6:15 AM 20.7 °F 15.8 °F 14.4 °F 77% 30.08 in 10.0 mi WNW 3.5 mph - N/A   Overcast
6:34 AM 20.7 °F 14.2 °F 14.7 °F 78% 30.08 in 10.0 mi NW 4.6 mph - N/A   Overcast
6:55 AM 20.5 °F 15.6 °F 14.5 °F 78% 30.09 in 10.0 mi NNW 3.5 mph - N/A   Overcast
7:15 AM 19.9 °F 12.1 °F 14.0 °F 78% 30.09 in 10.0 mi NNW 5.8 mph - N/A   Overcast
7:34 AM 19.9 °F 11.1 °F 13.8 °F 77% 30.10 in 10.0 mi NW 6.9 mph - N/A   Overcast
7:55 AM 19.8 °F 9.9 °F 13.5 °F 77% 30.11 in 10.0 mi NW 8.1 mph - N/A   Overcast
8:14 AM 19.4 °F 9.5 °F 12.7 °F 75% 30.12 in 10.0 mi NW 8.1 mph - N/A   Overcast
8:34 AM 19.4 °F 11.5 °F 12.9 °F 76% 30.13 in 10.0 mi NNW 5.8 mph - N/A Snow Light Snow
8:55 AM 19.4 °F 11.5 °F 12.9 °F 76% 30.14 in 10.0 mi NNW 5.8 mph - N/A Snow Light Snow
9:14 AM 19.4 °F 12.8 °F 12.7 °F 75% 30.15 in 10.0 mi NNW 4.6 mph - N/A   Overcast
9:35 AM 19.4 °F 9.5 °F 12.7 °F 75% 30.15 in 7.0 mi NW 8.1 mph - N/A Snow Light Snow
9:55 AM 19.4 °F 10.4 °F 12.4 °F 74% 30.16 in 7.0 mi NW 6.9 mph - N/A Snow Light Snow
10:14 AM 19.4 °F 10.4 °F 12.2 °F 74% 30.17 in 7.0 mi NW 6.9 mph - N/A Snow Light Snow
10:35 AM 19.4 °F 9.5 °F 12.7 °F 75% 30.17 in 5.0 mi NNW 8.1 mph - N/A Snow Light Snow
10:55 AM 19.4 °F 11.5 °F 13.1 °F 76% 30.18 in 4.0 mi NNW 5.8 mph - N/A Snow Light Snow
11:14 AM 19.4 °F 10.4 °F 13.3 °F 77% 30.19 in 2.5 mi NNW 6.9 mph - N/A Snow Light Snow
11:35 AM 19.4 °F 9.5 °F 13.1 °F 76% 30.19 in 3.0 mi NNW 8.1 mph - N/A Snow Light Snow
11:55 AM 19.4 °F 8.6 °F 12.4 °F 74% 30.20 in 7.0 mi NNW 9.2 mph - N/A Snow Light Snow
12:14 PM 19.4 °F 9.5 °F 12.6 °F 75% 30.21 in 7.0 mi NNW 8.1 mph - N/A Snow Light Snow
12:35 PM 19.4 °F 7.9 °F 11.8 °F 72% 30.20 in 7.0 mi NW 10.4 mph - N/A Snow Light Snow
12:55 PM 19.4 °F 9.5 °F 11.7 °F 72% 30.20 in 7.0 mi NNW 8.1 mph - N/A Snow Light Snow
1:14 PM 19.4 °F 8.6 °F 11.7 °F 72% 30.19 in 7.0 mi North 9.2 mph 17.3 mph N/A Snow Light Snow
1:35 PM 19.4 °F 10.4 °F 12.0 °F 73% 30.19 in 7.0 mi North 6.9 mph - N/A Snow Light Snow
1:55 PM 19.4 °F 10.4 °F 11.7 °F 72% 30.20 in 10.0 mi North 6.9 mph - N/A Snow Light Snow
2:14 PM 19.4 °F 8.6 °F 11.3 °F 71% 30.19 in 10.0 mi North 9.2 mph - N/A   Overcast
2:35 PM 19.4 °F 12.8 °F 11.3 °F 71% 30.19 in 10.0 mi North 4.6 mph - N/A Snow Light Snow
2:55 PM 19.4 °F 9.5 °F 12.0 °F 73% 30.18 in 10.0 mi North 8.1 mph - N/A Snow Light Snow
3:15 PM 19.2 °F 11.3 °F 10.6 °F 69% 30.20 in 10.0 mi NNW 5.8 mph - N/A   Overcast
3:35 PM 18.5 °F 11.7 °F 10.2 °F 70% 30.21 in 10.0 mi NW 4.6 mph - N/A Snow Light Snow
3:54 PM 17.8 °F 10.9 °F 9.3 °F 69% 30.22 in 10.0 mi NNW 4.6 mph - N/A   Mostly Cloudy
4:15 PM 17.2 °F 11.9 °F 8.8 °F 69% 30.22 in 10.0 mi NW 3.5 mph - N/A   Mostly Cloudy
4:35 PM 17.4 °F 9.1 °F 9.1 °F 70% 30.23 in 10.0 mi WNW 5.8 mph - N/A   Mostly Cloudy
4:54 PM 18.5 °F 10.4 °F 9.9 °F 69% 30.25 in 10.0 mi WNW 5.8 mph - N/A   Overcast
5:15 PM 18.3 °F 13.1 °F 9.7 °F 69% 30.25 in 10.0 mi West 3.5 mph - N/A   Overcast
5:35 PM 19.4 °F 14.3 °F 11.1 °F 70% 30.25 in 10.0 mi WNW 3.5 mph - N/A   Overcast
5:54 PM 17.8 °F 12.5 °F 9.9 °F 71% 30.26 in 10.0 mi WSW 3.5 mph - N/A   Overcast
6:15 PM 16.7 °F - 8.8 °F 71% 30.27 in 10.0 mi Calm Calm - N/A   Overcast
6:34 PM 16.7 °F - 9.5 °F 73% 30.27 in 10.0 mi Calm Calm - N/A   Mostly Cloudy
6:54 PM 14.4 °F - 8.2 °F 77% 30.27 in 10.0 mi Calm Calm - N/A   Scattered Clouds
7:15 PM 11.8 °F - 7.5 °F 83% 30.26 in 10.0 mi Calm Calm - N/A   Scattered Clouds
7:34 PM 9.3 °F - 6.3 °F 87% 30.26 in 10.0 mi Calm Calm - N/A   Scattered Clouds
7:55 PM 7.7 °F - 5.2 °F 89% 30.26 in 10.0 mi Calm Calm - N/A   Scattered Clouds
8:15 PM 9.3 °F - 6.8 °F 89% 30.25 in 10.0 mi Calm Calm - N/A   Scattered Clouds
8:34 PM 6.3 °F - 3.6 °F 89% 30.24 in 4.0 mi Calm Calm - N/A   Scattered Clouds
8:55 PM 6.3 °F - 3.6 °F 89% 30.24 in 7.0 mi Calm Calm - N/A   Clear
9:15 PM 4.5 °F - 1.4 °F 87% 30.24 in 3.0 mi Calm Calm - N/A   Clear
9:34 PM 1.8 °F - -1.7 °F 86% 30.25 in 4.0 mi Calm Calm - N/A   Clear
9:55 PM 3.6 °F - 0.5 °F 87% 30.25 in 7.0 mi Calm Calm - N/A   Scattered Clouds
10:15 PM 2.1 °F - -1.3 °F 86% 30.25 in 10.0 mi Calm Calm - N/A   Scattered Clouds
10:34 PM 0.5 °F - -2.7 °F 86% 30.25 in 10.0 mi Calm Calm - N/A   Clear
10:55 PM 2.3 °F - -0.9 °F 86% 30.25 in 7.0 mi Calm Calm - N/A   Clear
11:14 PM -0.4 °F - -3.8 °F 85% 30.25 in 10.0 mi Calm Calm - N/A   Clear
11:34 PM 0.5 °F - -2.9 °F 85% 30.25 in 7.0 mi Calm Calm - N/A   Clear
11:55 PM -0.8 °F - -4.2 °F 85% 30.26 in 7.0 mi Calm Calm - N/A   Clear